NOAA NWS Hourly Roundups by Site

Regional Weather Roundup for Omaha, NE

To Select Another Site Choose from List

Select Site:  

000
ASUS43 KOAX 191510
RWRNE

WEATHER ROUNDUP FOR NEBRASKA
NATIONAL WEATHER SERVICE OMAHA NE
1000 AM CDT MON APR 19 2021

NOTES: SATELLITE DATA IS BEING USED TO AUGMENT CLOUD COVER ABOVE
       12000 FEET.
       "FAIR" INDICATES FEW OR NO CLOUDS BELOW 12,000 FEET WITH NO
       SIGNIFICANT WEATHER AND/OR OBSTRUCTIONS TO VISIBILITY.


NEZ001>004-019>022-054>056-191600-
NEBRASKA PANHANDLE

CITY           SKY/WX    TMP DP  RH WIND       PRES   REMARKS
SCOTTSBLUFF    CLOUDY    30  22  72 NE9       30.16S WCI  22
ALLIANCE       CLOUDY    28  22  78 N9        30.13F WCI  19
CHADRON        LGT SNOW  27  21  80 N18       30.21R WCI  13
GORDON         LGT SNOW  25  21  85 CALM      30.16S
KIMBALL        CLOUDY    25  24  93 NE13      30.10F WCI  14
SIDNEY         CLOUDY    25  22  88 NE17      30.12S WCI  12
$$

NEZ057>060-069>072-079>082-191600-
SOUTHWEST NEBRASKA

CITY           SKY/WX    TMP DP  RH WIND       PRES   REMARKS
NORTH PLATTE   CLOUDY    30  20  66 N16G26    30.16S WCI  19
IMPERIAL       CLOUDY    30  21  69 NE17G31   30.14R WCI  18
LEXINGTON      CLOUDY    31  22  71 N20G25    30.15S WCI  18
MCCOOK         CLOUDY    32  24  72 NE15      30.14R WCI  22
OGALLALA       CLOUDY    30  23  75 NE12      30.16S WCI  21
$$

NEZ005>010-023>029-035>040-094-191600-
NORTH CENTRAL NEBRASKA

CITY           SKY/WX    TMP DP  RH WIND       PRES   REMARKS
AINSWORTH      CLOUDY    25  19  77 N15       30.18S WCI  13
BROKEN BOW     FLURRIES  28  22  78 N18G29    30.16R WCI  15
O`NEILL        CLOUDY    28  19  68 N14       30.17S WCI  17
ORD            LGT SNOW  28  22  78 N17       30.16S WCI  16
THEDFORD       LGT SNOW  27  22  80 N14       30.18R WCI  16
$$

NEZ041-046>049-061>064-073>077-083>087-191600-
SOUTH CENTRAL NEBRASKA

CITY           SKY/WX    TMP DP  RH WIND       PRES   REMARKS
GRAND ISLAND   CLOUDY    31  21  66 N22G30    30.16R WCI  18
AURORA         CLOUDY    31  23  72 N20G28    30.15S WCI  19
HASTINGS       CLOUDY    31  21  66 N22G32    30.14R WCI  18
HEBRON         CLOUDY    36  25  65 N21G28    30.12R WCI  24
HOLDREGE       CLOUDY    32  25  74 N17G24    30.14R WCI  21
KEARNEY        CLOUDY    30  22  72 N28G33    30.15S WCI  15
YORK           CLOUDY    30  23  74 N21G31    30.14R WCI  17
$$

NEZ011>018-030>034-042>045-191600-
NORTHEAST NEBRASKA

CITY           SKY/WX    TMP DP  RH WIND       PRES   REMARKS
NORFOLK        MIX PCPN  28  18  66 N20       30.14F WCI  15
ALBION         CLOUDY    28  22  81 N18G24    30.16S WCI  15
BLAIR          LGT SNOW  29  17  60 N15G23    30.11S WCI  18
COLUMBUS       FLURRIES  28  24  85 N21       30.17R WCI  15
FREMONT        LGT SNOW  32  27  84 NW16      30.14R WCI  21
TEKAMAH        LGT SNOW  30  26  85 N15       30.14S FOG     WCI  19
WAYNE          CLOUDY    29  19  66 N20       30.14S WCI  16
$$

NEZ050>053-065>068-078-088>093-191600-
SOUTHEAST NEBRASKA

CITY           SKY/WX    TMP DP  RH WIND       PRES   REMARKS
LINCOLN        CLOUDY    34  23  64 N22G32    30.14R WCI  22
OMAHA EPPLEY   LGT SNOW  31  25  78 N23G29    30.12R WCI  18
BEATRICE       CLOUDY    37  28  72 N20G29    30.11R WCI  26
FALLS CITY     PTSUNNY   40  31  70 N16G24    30.06R WCI  31
NEBRASKA CITY  CLOUDY   N/A N/A N/A N21G26    30.09R
PLATTSMOUTH    CLOUDY    33  23  66 N14G25    30.10R WCI  24
$$

NEZ044-045-051>053-067-191600-
OMAHA AREA

CITY           SKY/WX    TMP DP  RH WIND       PRES   REMARKS
OMAHA EPPLEY   LGT SNOW  31  25  78 N23G29    30.12R WCI  18
BLAIR          LGT SNOW  29  17  60 N15G23    30.11S WCI  18
FREMONT        LGT SNOW  32  27  84 NW16      30.14R WCI  21
MILLARD        CLOUDY    34  26  72 N10G17    30.13S WCI  26
PLATTSMOUTH    CLOUDY    33  23  66 N14G25    30.10R WCI  24
WAHOO          FLURRIES  32  27  83 N21G26    30.13S WCI  20
$$


 

View Past Reports for Omaha, NE.

Products Courtesy of NOAA-NWS
NWS Information Parsing Script by Ken True at Saratoga Weather - Script by SE Lincoln Weather.